Location: G�ppingen
(48.7000°N, 9.6670°E)
Time: 21:07:49
(UTC+01:00)

OTV 5 (USA 277) - Visible Passes

Search period start: 16 February 2019 00:00
Search period end: 26 February 2019 00:00
Orbit: 342 x 346 km, 54.5° (Epoch: 09 February)

Date Brightness Start Highest point End Pass type
(mag) Time Alt. Az. Time Alt. Az. Time Alt. Az.
16 Feb ? 05:13:11 13° SE 05:13:11 13° SE 05:13:36 10° SE visible
23 Feb ? 19:37:50 10° S 19:38:23 13° S 19:38:23 13° S visible
24 Feb ? 20:00:45 10° SW 20:01:55 21° SW 20:01:55 21° SW visible
25 Feb ? 18:50:19 10° S 18:52:32 20° SE 18:53:50 15° E visible
25 Feb ? 20:24:22 10° WSW 20:25:18 18° WSW 20:25:18 18° WSW visible
